| time (UTC) | temp F | wind direction | speed MPH | gust MPH | rain 1hr in | rain 24hr in | rain mn in | humidity % | barometer mb |
| 20260904071518 | 81 | 154 | 0.0 | 0.0 | 0.00 | 0.00 | 0.00 | 100 | 1015.6 |
| 20260904071017 | 81 | 154 | 0.0 | 0.0 | 0.00 | 0.00 | 0.00 | 100 | 1015.6 |
| 20260904070520 | 81 | 154 | 0.0 | 0.0 | 0.00 | 0.00 | 0.00 | 100 | 1015.7 |
| 20260904070017 | 81 | 154 | 0.0 | 0.0 | 0.00 | 0.00 | 0.00 | 100 | 1015.7 |
| 20260904065515 | 81 | 154 | 0.0 | 0.0 | 0.00 | 0.00 | 0.00 | 100 | 1015.8 |
| 20260904065015 | 81 | 154 | 0.0 | 0.0 | 0.00 | 0.00 | 0.00 | 100 | 1015.8 |
| 20260904064515 | 81 | 154 | 0.0 | 0.0 | 0.00 | 0.00 | 0.00 | 100 | 1015.8 |
| 20260904064014 | 81 | 154 | 0.0 | 0.0 | 0.00 | 0.00 | 0.00 | 100 | 1015.8 |
| 20260904063513 | 81 | 154 | 0.0 | 0.0 | 0.00 | 0.00 | 0.00 | 100 | 1015.9 |
| 20260904063014 | 81 | 154 | 0.0 | 0.0 | 0.00 | 0.00 | 0.00 | 100 | 1016.0 |
| 20260904062512 | 81 | 154 | 0.0 | 0.0 | 0.00 | 0.00 | 0.00 | 100 | 1015.9 |
| 20260904062013 | 82 | 154 | 0.0 | 0.0 | 0.00 | 0.00 | 0.00 | 100 | 1015.9 |
| 20260904061520 | 82 | 154 | 0.0 | 0.0 | 0.00 | 0.00 | 0.00 | 100 | 1016.0 |
| 20260904061017 | 82 | 154 | 0.0 | 0.0 | 0.00 | 0.00 | 0.00 | 100 | 1016.0 |
| 20260904060511 | 82 | 154 | 0.0 | 3.0 | 0.00 | 0.00 | 0.00 | 100 | 1016.1 |
| 20260904060018 | 82 | 154 | 0.0 | 5.0 | 0.00 | 0.00 | 0.00 | 100 | 1016.2 |
| 20260904055510 | 82 | 154 | 1.0 | 7.0 | 0.00 | 0.00 | 0.00 | 100 | 1016.1 |
| 20260904055009 | 82 | 148 | 2.0 | 7.0 | 0.00 | 0.00 | 0.00 | 100 | 1016.2 |
| 20260904054514 | 82 | 152 | 2.0 | 6.0 | 0.00 | 0.00 | 0.00 | 100 | 1016.3 |
| 20260904054008 | 82 | 177 | 2.0 | 6.0 | 0.00 | 0.00 | 0.00 | 100 | 1016.3 |
| 20260904053510 | 82 | 149 | 2.0 | 6.0 | 0.00 | 0.00 | 0.00 | 100 | 1016.4 |
| 20260904053008 | 82 | 151 | 2.0 | 6.0 | 0.00 | 0.00 | 0.00 | 100 | 1016.4 |
| 20260904052512 | 82 | 155 | 2.0 | 5.0 | 0.00 | 0.00 | 0.00 | 100 | 1016.4 |
| 20260904052010 | 82 | 147 | 2.0 | 7.0 | 0.00 | 0.00 | 0.00 | 100 | 1016.4 |
| 20260904051514 | 82 | 157 | 2.0 | 8.0 | 0.00 | 0.00 | 0.00 | 100 | 1016.4 |
| 20260904051008 | 82 | 175 | 2.0 | 9.0 | 0.00 | 0.00 | 0.00 | 100 | 1016.4 |
| 20260904050508 | 82 | 172 | 2.0 | 9.0 | 0.00 | 0.00 | 0.00 | 100 | 1016.3 |
| 20260904050006 | 82 | 177 | 5.0 | 9.0 | 0.00 | 0.00 | 0.00 | 100 | 1016.4 |
| 20260904045508 | 82 | 140 | 4.0 | 8.0 | 0.00 | 0.00 | 0.00 | 100 | 1016.4 |
| 20260904045005 | 82 | 169 | 2.0 | 7.0 | 0.00 | 0.00 | 0.00 | 100 | 1016.4 |
| 20260904044505 | 82 | 136 | 3.0 | 8.0 | 0.00 | 0.00 | 0.00 | 100 | 1016.4 |
| 20260904044006 | 83 | 142 | 0.0 | 8.0 | 0.00 | 0.00 | 0.00 | 100 | 1016.4 |
| 20260904043504 | 83 | 187 | 3.0 | 8.0 | 0.00 | 0.00 | 0.00 | 100 | 1016.6 |
| 20260904043004 | 82 | 158 | 4.0 | 8.0 | 0.00 | 0.00 | 0.00 | 100 | 1016.5 |
| 20260904042504 | 82 | 138 | 3.0 | 7.0 | 0.00 | 0.00 | 0.00 | 100 | 1016.5 |
| 20260904042003 | 82 | 174 | 2.0 | 7.0 | 0.00 | 0.00 | 0.00 | 100 | 1016.4 |
| 20260904041503 | 82 | 143 | 3.0 | 9.0 | 0.00 | 0.00 | 0.00 | 100 | 1016.4 |
| 20260904041003 | 82 | 159 | 4.0 | 8.0 | 0.00 | 0.00 | 0.00 | 100 | 1016.5 |
| 20260904040502 | 82 | 159 | 2.0 | 7.0 | 0.00 | 0.00 | 0.00 | 100 | 1016.7 |
| 20260904040004 | 82 | 155 | 3.0 | 7.0 | 0.00 | 0.00 | 0.00 | 100 | 1016.5 |
| 20260904035603 | 82 | 140 | 0.0 | 4.0 | 0.00 | 0.00 | 0.00 | 100 | 1016.5 |
| 20260904035101 | 82 | 140 | 1.0 | 4.0 | 0.00 | 0.00 | 0.00 | 100 | 1016.5 |
| 20260904034559 | 82 | 142 | 0.0 | 4.0 | 0.00 | 0.00 | 0.00 | 100 | 1016.5 |
| 20260904034101 | 82 | 142 | 0.0 | 4.0 | 0.00 | 0.00 | 0.00 | 100 | 1016.6 |
| 20260904033600 | 82 | 142 | 0.0 | 7.0 | 0.00 | 0.00 | 0.00 | 100 | 1016.5 |
| 20260904033100 | 82 | 141 | 2.0 | 7.0 | 0.00 | 0.00 | 0.00 | 100 | 1016.5 |
| 20260904032559 | 82 | 155 | 1.0 | 5.0 | 0.00 | 0.00 | 0.00 | 100 | 1016.5 |
| 20260904032058 | 82 | 155 | 1.0 | 4.0 | 0.00 | 0.00 | 0.00 | 100 | 1016.7 |
| 20260904031600 | 81 | 132 | 1.0 | 4.0 | 0.00 | 0.00 | 0.00 | 100 | 1016.6 |
| 20260904031058 | 81 | 132 | 1.0 | 4.0 | 0.00 | 0.00 | 0.00 | 100 | 1016.6 |
| 20260904030559 | 81 | 129 | 2.0 | 7.0 | 0.00 | 0.00 | 0.00 | 100 | 1016.6 |
| 20260904030058 | 81 | 134 | 2.0 | 7.0 | 0.00 | 0.00 | 0.00 | 100 | 1016.7 |
| 20260904025558 | 81 | 129 | 1.0 | 5.0 | 0.00 | 0.00 | 0.00 | 100 | 1016.7 |
| 20260904025057 | 80 | 158 | 0.0 | 0.0 | 0.00 | 0.00 | 0.00 | 100 | 1016.7 |
| 20260904024558 | 80 | 159 | 0.0 | 0.0 | 0.00 | 0.00 | 0.00 | 100 | 1016.9 |
| 20260904024100 | 80 | 159 | 0.0 | 0.0 | 0.00 | 0.00 | 0.00 | 100 | 1016.8 |
| 20260904023557 | 81 | 159 | 0.0 | 1.0 | 0.00 | 0.00 | 0.00 | 100 | 1016.8 |
| 20260904023058 | 81 | 159 | 0.0 | 3.0 | 0.00 | 0.00 | 0.00 | 100 | 1016.9 |
| 20260904022557 | 81 | 159 | 1.0 | 3.0 | 0.00 | 0.00 | 0.00 | 100 | 1016.9 |
| 20260904022057 | 81 | 157 | 0.0 | 0.0 | 0.00 | 0.00 | 0.00 | 100 | 1016.9 |
| 20260904021557 | 81 | 157 | 0.0 | 0.0 | 0.00 | 0.00 | 0.00 | 100 | 1016.9 |
| 20260904021057 | 81 | 157 | 0.0 | 0.0 | 0.00 | 0.00 | 0.00 | 100 | 1016.9 |
| 20260904020557 | 81 | 156 | 0.0 | 2.0 | 0.00 | 0.00 | 0.00 | 100 | 1016.9 |
| 20260904020058 | 81 | 156 | 0.0 | 5.0 | 0.00 | 0.00 | 0.00 | 100 | 1016.9 |
| 20260904015556 | 81 | 156 | 1.0 | 6.0 | 0.00 | 0.00 | 0.00 | 100 | 1017.0 |
| 20260904015056 | 81 | 158 | 2.0 | 6.0 | 0.00 | 0.00 | 0.00 | 100 | 1017.0 |
| 20260904014606 | 81 | 146 | 2.0 | 7.0 | 0.00 | 0.00 | 0.00 | 100 | 1016.9 |
| 20260904014056 | 81 | 164 | 3.0 | 7.0 | 0.00 | 0.00 | 0.00 | 100 | 1016.9 |
| 20260904013555 | 81 | 159 | 2.0 | 6.0 | 0.00 | 0.00 | 0.00 | 100 | 1016.9 |
| 20260904013055 | 81 | 150 | 2.0 | 7.0 | 0.00 | 0.00 | 0.00 | 100 | 1016.9 |
| 20260904012556 | 81 | 162 | 3.0 | 7.0 | 0.00 | 0.00 | 0.00 | 100 | 1016.9 |
| 20260904012056 | 81 | 155 | 2.0 | 6.0 | 0.00 | 0.00 | 0.00 | 100 | 1016.8 |
| 20260904011555 | 81 | 161 | 1.0 | 5.0 | 0.00 | 0.00 | 0.00 | 100 | 1016.7 |
| 20260904011155 | 81 | 151 | 0.0 | 7.0 | 0.00 | 0.00 | 0.00 | 100 | 1016.6 |
| 20260904010554 | 80 | 159 | 3.0 | 7.0 | 0.00 | 0.00 | 0.00 | 100 | 1016.5 |
| 20260904010112 | 80 | 156 | 2.0 | 6.0 | 0.00 | 0.00 | 0.00 | 100 | 1016.5 |
| 20260904005559 | 81 | 153 | 0.0 | 5.0 | 0.00 | 0.00 | 0.00 | 100 | 1016.3 |
| 20260904005053 | 80 | 153 | 1.0 | 5.0 | 0.00 | 0.00 | 0.00 | 100 | 1016.2 |
| 20260904004554 | 81 | 149 | 0.0 | 3.0 | 0.00 | 0.00 | 0.00 | 100 | 1016.2 |
| 20260904004053 | 80 | 149 | 1.0 | 5.0 | 0.00 | 0.00 | 0.00 | 100 | 1016.2 |
| 20260904003553 | 81 | 148 | 0.0 | 7.0 | 0.00 | 0.00 | 0.00 | 100 | 1016.2 |
| 20260904003053 | 81 | 148 | 1.0 | 7.0 | 0.00 | 0.00 | 0.00 | 100 | 1016.2 |
| 20260904002655 | 81 | 150 | 2.0 | 6.0 | 0.00 | 0.00 | 0.00 | 100 | 1016.2 |
| 20260904002053 | 81 | 134 | 1.0 | 6.0 | 0.00 | 0.00 | 0.00 | 100 | 1016.0 |
| 20260904001552 | 81 | 150 | 1.0 | 8.0 | 0.00 | 0.00 | 0.00 | 100 | 1016.1 |
| 20260904001052 | 81 | 148 | 3.0 | 8.0 | 0.00 | 0.00 | 0.00 | 100 | 1016.2 |
| 20260904000552 | 81 | 154 | 1.0 | 10.0 | 0.00 | 0.00 | 0.00 | 100 | 1016.2 |
| 20260904000057 | 81 | 143 | 4.0 | 10.0 | 0.00 | 0.00 | 0.00 | 100 | 1016.3 |
| 20260903235552 | 82 | 155 | 4.0 | 10.0 | 0.00 | 0.00 | 0.00 | 100 | 1016.3 |
| 20260903235051 | 82 | 148 | 3.0 | 9.0 | 0.00 | 0.00 | 0.00 | 100 | 1016.2 |
| 20260903234551 | 82 | 140 | 3.0 | 10.0 | 0.00 | 0.00 | 0.00 | 100 | 1016.1 |
| 20260903234051 | 82 | 142 | 1.0 | 11.0 | 0.00 | 0.00 | 0.00 | 100 | 1015.9 |
| 20260903233551 | 82 | 127 | 3.0 | 11.0 | 0.00 | 0.00 | 0.00 | 100 | 1015.8 |
| 20260903233055 | 82 | 200 | 2.0 | 11.0 | 0.00 | 0.00 | 0.00 | 100 | 1015.8 |
| 20260903232551 | 82 | 118 | 4.0 | 11.0 | 0.00 | 0.00 | 0.00 | 100 | 1015.8 |
| 20260903232051 | 82 | 136 | 4.0 | 10.0 | 0.00 | 0.00 | 0.00 | 100 | 1015.7 |
| 20260903231551 | 82 | 136 | 4.0 | 10.0 | 0.00 | 0.00 | 0.00 | 100 | 1015.8 |
| 20260903231051 | 83 | 138 | 4.0 | 9.0 | 0.00 | 0.00 | 0.00 | 100 | 1015.9 |
| 20260903230550 | 83 | 148 | 3.0 | 7.0 | 0.00 | 0.00 | 0.00 | 100 | 1016.1 |
| 20260903230050 | 83 | 142 | 2.0 | 13.0 | 0.00 | 0.00 | 0.00 | 100 | 1015.9 |
| 20260903225549 | 83 | 152 | 7.0 | 16.0 | 0.00 | 0.00 | 0.00 | 100 | 1016.0 |
| 20260903225049 | 83 | 115 | 4.0 | 14.0 | 0.00 | 0.00 | 0.00 | 100 | 1016.0 |
| 20260903224549 | 83 | 155 | 3.0 | 9.0 | 0.00 | 0.00 | 0.00 | 100 | 1015.9 |
| 20260903224052 | 84 | 157 | 2.0 | 9.0 | 0.00 | 0.00 | 0.00 | 100 | 1015.8 |
| 20260903223549 | 83 | 128 | 4.0 | 9.0 | 0.00 | 0.00 | 0.00 | 100 | 1015.7 |
| 20260903223051 | 84 | 101 | 2.0 | 11.0 | 0.00 | 0.00 | 0.00 | 100 | 1015.6 |
| 20260903222549 | 83 | 163 | 5.0 | 11.0 | 0.00 | 0.00 | 0.00 | 100 | 1015.6 |
| 20260903222049 | 84 | 145 | 2.0 | 8.0 | 0.00 | 0.00 | 0.00 | 100 | 1015.7 |
| 20260903221549 | 84 | 109 | 3.0 | 13.0 | 0.00 | 0.00 | 0.00 | 100 | 1015.5 |
| 20260903221048 | 84 | 154 | 5.0 | 11.0 | 0.00 | 0.00 | 0.00 | 100 | 1015.5 |
| 20260903220548 | 84 | 167 | 4.0 | 11.0 | 0.00 | 0.00 | 0.00 | 100 | 1015.4 |
| 20260903220052 | 84 | 120 | 3.0 | 11.0 | 0.00 | 0.00 | 0.00 | 100 | 1015.6 |
| 20260903215547 | 84 | 143 | 7.0 | 11.0 | 0.00 | 0.00 | 0.00 | 100 | 1015.6 |
| 20260903215046 | 84 | 109 | 3.0 | 9.0 | 0.00 | 0.00 | 0.00 | 100 | 1015.7 |
| 20260903214548 | 84 | 184 | 3.0 | 10.0 | 0.00 | 0.00 | 0.00 | 100 | 1015.6 |
| 20260903214047 | 84 | 135 | 3.0 | 10.0 | 0.00 | 0.00 | 0.00 | 100 | 1015.6 |
| 20260903213547 | 84 | 113 | 5.0 | 13.0 | 0.00 | 0.00 | 0.00 | 100 | 1015.4 |
| 20260903213048 | 85 | 126 | 5.0 | 13.0 | 0.00 | 0.00 | 0.00 | 100 | 1015.4 |
| 20260903212546 | 85 | 99 | 5.0 | 12.0 | 0.00 | 0.00 | 0.00 | 100 | 1015.7 |
| 20260903212046 | 85 | 126 | 4.0 | 12.0 | 0.00 | 0.00 | 0.00 | 100 | 1015.8 |
| 20260903211545 | 84 | 130 | 5.0 | 12.0 | 0.00 | 0.00 | 0.00 | 100 | 1015.5 |
| 20260903211047 | 85 | 148 | 7.0 | 14.0 | 0.00 | 0.00 | 0.00 | 100 | 1015.5 |
| 20260903210545 | 85 | 110 | 4.0 | 14.0 | 0.00 | 0.00 | 0.00 | 100 | 1015.4 |
| 20260903205545 | 85 | 100 | 5.0 | 13.0 | 0.00 | 0.00 | 0.00 | 100 | 1014.6 |
| 20260903205044 | 85 | 115 | 6.0 | 12.0 | 0.00 | 0.00 | 0.00 | 100 | 1014.6 |
| 20260903204603 | 85 | 155 | 5.0 | 13.0 | 0.00 | 0.00 | 0.00 | 100 | 1014.6 |
| 20260903204046 | 85 | 132 | 4.0 | 13.0 | 0.00 | 0.00 | 0.00 | 100 | 1014.3 |
| 20260903203543 | 84 | 112 | 2.0 | 13.0 | 0.00 | 0.00 | 0.00 | 100 | 1014.5 |
| 20260903203045 | 84 | 168 | 5.0 | 13.0 | 0.00 | 0.00 | 0.00 | 100 | 1014.5 |
| 20260903202543 | 85 | 126 | 5.0 | 10.0 | 0.00 | 0.00 | 0.00 | 100 | 1014.5 |
| 20260903202043 | 85 | 122 | 3.0 | 11.0 | 0.00 | 0.00 | 0.00 | 100 | 1014.6 |
| 20260903201542 | 85 | 117 | 4.0 | 11.0 | 0.00 | 0.00 | 0.00 | 100 | 1015.1 |
| 20260903201046 | 84 | 120 | 5.0 | 11.0 | 0.00 | 0.00 | 0.00 | 100 | 1015.4 |
| 20260903200542 | 85 | 140 | 5.0 | 11.0 | 0.00 | 0.00 | 0.00 | 100 | 1015.7 |
| 20260903200051 | 85 | 134 | 4.0 | 9.0 | 0.00 | 0.00 | 0.00 | 100 | 1015.7 |
| 20260903195541 | 85 | 111 | 4.0 | 10.0 | 0.00 | 0.00 | 0.00 | 100 | 1015.4 |
| 20260903195043 | 85 | 122 | 4.0 | 11.0 | 0.00 | 0.00 | 0.00 | 100 | 1015.2 |
| 20260903194541 | 85 | 125 | 3.0 | 10.0 | 0.00 | 0.00 | 0.00 | 100 | 1015.1 |
| 20260903194042 | 85 | 77 | 3.0 | 8.0 | 0.00 | 0.00 | 0.00 | 100 | 1015.3 |
| 20260903193542 | 85 | 128 | 3.0 | 7.0 | 0.00 | 0.00 | 0.00 | 100 | 1015.4 |
| 20260903193040 | 85 | 130 | 2.0 | 8.0 | 0.00 | 0.00 | 0.00 | 100 | 1015.6 |
| 20260903192539 | 85 | 80 | 2.0 | 8.0 | 0.00 | 0.00 | 0.00 | 100 | 1015.7 |
| 20260903192042 | 84 | 157 | 2.0 | 8.0 | 0.00 | 0.00 | 0.00 | 100 | 1015.5 |
| 20260903191541 | 84 | 123 | 3.0 | 8.0 | 0.00 | 0.00 | 0.00 | 100 | 1015.6 |
| 20260903191040 | 84 | 117 | 3.0 | 8.0 | 0.00 | 0.00 | 0.00 | 100 | 1015.6 |
| 20260903190539 | 84 | 114 | 2.0 | 7.0 | 0.00 | 0.00 | 0.00 | 100 | 1015.7 |
| 20260903190040 | 84 | 76 | 0.0 | 6.0 | 0.00 | 0.00 | 0.00 | 100 | 1015.7 |
| 20260903185539 | 84 | 163 | 2.0 | 8.0 | 0.00 | 0.00 | 0.00 | 100 | 1015.6 |
| 20260903185039 | 83 | 111 | 3.0 | 10.0 | 0.00 | 0.00 | 0.00 | 100 | 1015.7 |
| 20260903184543 | 83 | 113 | 3.0 | 13.0 | 0.00 | 0.00 | 0.00 | 100 | 1015.7 |
| 20260903184040 | 83 | 71 | 5.0 | 13.0 | 0.00 | 0.00 | 0.00 | 100 | 1015.7 |
| 20260903183538 | 83 | 151 | 1.0 | 9.0 | 0.00 | 0.00 | 0.00 | 100 | 1015.8 |
| 20260903183038 | 84 | 134 | 3.0 | 8.0 | 0.00 | 0.00 | 0.00 | 100 | 1016.0 |
| 20260903182537 | 84 | 121 | 1.0 | 7.0 | 0.00 | 0.00 | 0.00 | 100 | 1016.0 |
| 20260903182037 | 84 | 101 | 2.0 | 8.0 | 0.00 | 0.00 | 0.00 | 100 | 1016.3 |
| 20260903181537 | 85 | 78 | 1.0 | 8.0 | 0.00 | 0.00 | 0.00 | 100 | 1016.3 |
| 20260903181036 | 84 | 117 | 2.0 | 12.0 | 0.00 | 0.00 | 0.00 | 100 | 1016.3 |
| 20260903180537 | 85 | 132 | 1.0 | 7.0 | 0.00 | 0.00 | 0.00 | 100 | 1016.3 |
| 20260903180038 | 84 | 136 | 1.0 | 9.0 | 0.00 | 0.00 | 0.00 | 100 | 1016.3 |
| 20260903175536 | 84 | 64 | 3.0 | 9.0 | 0.00 | 0.00 | 0.00 | 100 | 1016.3 |
| 20260903175036 | 84 | 119 | 3.0 | 10.0 | 0.00 | 0.00 | 0.00 | 100 | 1016.2 |
| 20260903174536 | 85 | 134 | 5.0 | 10.0 | 0.00 | 0.00 | 0.00 | 100 | 1016.5 |
| 20260903174036 | 85 | 137 | 2.0 | 8.0 | 0.00 | 0.00 | 0.00 | 100 | 1016.3 |
| 20260903173535 | 86 | 126 | 3.0 | 8.0 | 0.00 | 0.00 | 0.00 | 100 | 1016.2 |
| 20260903173034 | 86 | 116 | 2.0 | 8.0 | 0.00 | 0.00 | 0.00 | 100 | 1016.3 |
| 20260903172534 | 86 | 109 | 3.0 | 7.0 | 0.00 | 0.00 | 0.00 | 100 | 1016.4 |
| 20260903172034 | 85 | 127 | 3.0 | 9.0 | 0.00 | 0.00 | 0.00 | 100 | 1016.5 |
| 20260903171532 | 85 | 146 | 1.0 | 10.0 | 0.00 | 0.00 | 0.00 | 100 | 1016.6 |
| 20260903171033 | 84 | 118 | 3.0 | 11.0 | 0.00 | 0.00 | 0.00 | 100 | 1016.4 |
| 20260903170535 | 83 | 146 | 3.0 | 11.0 | 0.00 | 0.00 | 0.00 | 100 | 1016.5 |
| 20260903170036 | 83 | 105 | 3.0 | 10.0 | 0.00 | 0.00 | 0.00 | 100 | 1016.6 |
| 20260903165533 | 83 | 123 | 2.0 | 10.0 | 0.00 | 0.00 | 0.00 | 100 | 1016.6 |
| 20260903165032 | 83 | 125 | 1.0 | 8.0 | 0.00 | 0.00 | 0.00 | 100 | 1016.8 |
| 20260903164532 | 84 | 120 | 3.0 | 9.0 | 0.00 | 0.00 | 0.00 | 100 | 1016.8 |
| 20260903164032 | 84 | 105 | 3.0 | 9.0 | 0.00 | 0.00 | 0.00 | 100 | 1016.9 |
| 20260903163534 | 84 | 107 | 1.0 | 7.0 | 0.00 | 0.00 | 0.00 | 100 | 1017.0 |
| 20260903163031 | 84 | 129 | 0.0 | 8.0 | 0.00 | 0.00 | 0.00 | 100 | 1017.0 |
| 20260903162532 | 84 | 146 | 3.0 | 8.0 | 0.00 | 0.00 | 0.00 | 100 | 1017.0 |
| 20260903162032 | 85 | 119 | 3.0 | 9.0 | 0.00 | 0.00 | 0.00 | 100 | 1017.1 |
| 20260903161534 | 85 | 113 | 4.0 | 8.0 | 0.00 | 0.00 | 0.00 | 100 | 1017.1 |
| 20260903161031 | 85 | 111 | 0.0 | 5.0 | 0.00 | 0.00 | 0.00 | 100 | 1017.0 |
| 20260903160532 | 86 | 111 | 2.0 | 5.0 | 0.00 | 0.00 | 0.00 | 100 | 1017.0 |
| 20260903160053 | 85 | 138 | 1.0 | 4.0 | 0.00 | 0.00 | 0.00 | 100 | 1016.9 |
| 20260903155530 | 85 | 120 | 1.0 | 6.0 | 0.00 | 0.00 | 0.00 | 100 | 1016.9 |
| 20260903155031 | 85 | 121 | 1.0 | 6.0 | 0.00 | 0.00 | 0.00 | 100 | 1017.0 |
| 20260903154531 | 86 | 109 | 0.0 | 5.0 | 0.00 | 0.00 | 0.00 | 100 | 1017.0 |
| 20260903154030 | 86 | 128 | 2.0 | 7.0 | 0.00 | 0.00 | 0.00 | 100 | 1017.0 |
| 20260903153529 | 86 | 102 | 2.0 | 8.0 | 0.00 | 0.00 | 0.00 | 100 | 1017.1 |
| 20260903153030 | 85 | 140 | 2.0 | 8.0 | 0.00 | 0.00 | 0.00 | 100 | 1017.2 |
| 20260903152530 | 86 | 107 | 2.0 | 6.0 | 0.00 | 0.00 | 0.00 | 100 | 1017.3 |
| 20260903152030 | 86 | 82 | 1.0 | 7.0 | 0.00 | 0.00 | 0.00 | 100 | 1017.3 |
| 20260903151534 | 86 | 144 | 2.0 | 4.0 | 0.00 | 0.00 | 0.00 | 100 | 1017.3 |
| 20260903151028 | 86 | 212 | 1.0 | 8.0 | 0.00 | 0.00 | 0.00 | 100 | 1017.3 |
| 20260903150527 | 86 | 232 | 2.0 | 8.0 | 0.00 | 0.00 | 0.00 | 100 | 1017.2 |
| 20260903150030 | 86 | 224 | 2.0 | 6.0 | 0.00 | 0.00 | 0.00 | 100 | 1017.2 |
| 20260903145526 | 86 | 197 | 1.0 | 8.0 | 0.00 | 0.00 | 0.00 | 100 | 1017.2 |
| 20260903145026 | 86 | 219 | 3.0 | 8.0 | 0.00 | 0.00 | 0.00 | 100 | 1017.1 |
| 20260903144526 | 86 | 188 | 2.0 | 5.0 | 0.00 | 0.00 | 0.00 | 100 | 1017.1 |
| 20260903144024 | 87 | 197 | 3.0 | 5.0 | 0.00 | 0.00 | 0.00 | 100 | 1017.2 |
| 20260903143523 | 87 | 170 | 2.0 | 6.0 | 0.00 | 0.00 | 0.00 | 100 | 1017.1 |
| 20260903143026 | 86 | 184 | 1.0 | 6.0 | 0.00 | 0.00 | 0.00 | 100 | 1017.0 |
| 20260903142521 | 86 | 178 | 1.0 | 9.0 | 0.00 | 0.00 | 0.00 | 100 | 1017.1 |
| 20260903142019 | 86 | 162 | 3.0 | 9.0 | 0.00 | 0.00 | 0.00 | 100 | 1016.9 |
| 20260903141517 | 85 | 233 | 2.0 | 5.0 | 0.00 | 0.00 | 0.00 | 100 | 1016.9 |
| 20260903141019 | 85 | 224 | 2.0 | 5.0 | 0.00 | 0.00 | 0.00 | 100 | 1016.9 |
| 20260903140514 | 85 | 210 | 2.0 | 5.0 | 0.00 | 0.00 | 0.00 | 100 | 1016.8 |
| 20260903140013 | 85 | 181 | 2.0 | 6.0 | 0.00 | 0.00 | 0.00 | 100 | 1016.8 |
| 20260903135511 | 84 | 175 | 3.0 | 6.0 | 0.00 | 0.00 | 0.00 | 100 | 1016.7 |
| 20260903135012 | 84 | 220 | 2.0 | 6.0 | 0.00 | 0.00 | 0.00 | 100 | 1016.8 |
| 20260903134508 | 84 | 203 | 1.0 | 7.0 | 0.00 | 0.00 | 0.00 | 100 | 1016.7 |
| 20260903134011 | 83 | 221 | 2.0 | 5.0 | 0.00 | 0.00 | 0.00 | 100 | 1016.6 |
| 20260903133508 | 83 | 171 | 3.0 | 5.0 | 0.00 | 0.00 | 0.00 | 100 | 1016.7 |
| 20260903133008 | 83 | 167 | 1.0 | 5.0 | 0.00 | 0.00 | 0.00 | 100 | 1016.7 |
| 20260903132504 | 82 | 161 | 0.0 | 5.0 | 0.00 | 0.00 | 0.00 | 100 | 1016.7 |
| 20260903132004 | 82 | 144 | 1.0 | 5.0 | 0.00 | 0.00 | 0.00 | 100 | 1016.6 |
| 20260903131504 | 82 | 193 | 0.0 | 0.0 | 0.00 | 0.00 | 0.00 | 100 | 1016.7 |
| 20260903131005 | 81 | 193 | 0.0 | 0.0 | 0.00 | 0.00 | 0.00 | 100 | 1016.7 |
| 20260903130504 | 81 | 191 | 0.0 | 0.0 | 0.00 | 0.00 | 0.00 | 100 | 1016.5 |
| 20260903130005 | 80 | 192 | 0.0 | 0.0 | 0.00 | 0.00 | 0.00 | 100 | 1016.6 |
| 20260903125506 | 80 | 204 | 0.0 | 0.0 | 0.00 | 0.00 | 0.00 | 100 | 1016.7 |
| 20260903125004 | 80 | 203 | 0.0 | 0.0 | 0.00 | 0.00 | 0.00 | 100 | 1016.6 |
| 20260903124502 | 79 | 203 | 0.0 | 0.0 | 0.00 | 0.00 | 0.00 | 100 | 1016.6 |
| 20260903124002 | 79 | 202 | 0.0 | 0.0 | 0.00 | 0.00 | 0.00 | 100 | 1016.6 |
| 20260903123504 | 79 | 202 | 0.0 | 0.0 | 0.00 | 0.00 | 0.00 | 100 | 1016.7 |
| 20260903123005 | 79 | 202 | 0.0 | 0.0 | 0.00 | 0.00 | 0.00 | 100 | 1016.7 |
| 20260903122502 | 79 | 202 | 0.0 | 0.0 | 0.00 | 0.00 | 0.00 | 100 | 1016.7 |
| 20260903122003 | 79 | 202 | 0.0 | 0.0 | 0.00 | 0.00 | 0.00 | 100 | 1016.7 |
| 20260903121501 | 79 | 201 | 0.0 | 0.0 | 0.00 | 0.00 | 0.00 | 100 | 1016.7 |
| 20260903121002 | 78 | 201 | 0.0 | 0.0 | 0.00 | 0.00 | 0.00 | 100 | 1016.7 |
| 20260903120502 | 78 | 201 | 0.0 | 0.0 | 0.00 | 0.00 | 0.00 | 100 | 1016.5 |
| 20260903120002 | 78 | 200 | 0.0 | 0.0 | 0.00 | 0.00 | 0.00 | 100 | 1016.6 |
| 20260903115504 | 78 | 200 | 0.0 | 0.0 | 0.00 | 0.00 | 0.00 | 100 | 1016.4 |
| 20260903115001 | 78 | 199 | 0.0 | 0.0 | 0.00 | 0.00 | 0.00 | 100 | 1016.4 |
| 20260903114502 | 78 | 199 | 0.0 | 0.0 | 0.00 | 0.00 | 0.00 | 100 | 1016.3 |
| 20260903114105 | 78 | 199 | 0.0 | 0.0 | 0.00 | 0.00 | 0.00 | 100 | 1016.2 |
| 20260903113603 | 78 | 199 | 0.0 | 0.0 | 0.00 | 0.00 | 0.00 | 100 | 1016.1 |
| 20260903113100 | 78 | 199 | 0.0 | 0.0 | 0.00 | 0.00 | 0.00 | 100 | 1016.0 |
| 20260903112602 | 78 | 199 | 0.0 | 0.0 | 0.00 | 0.00 | 0.00 | 100 | 1015.9 |
| 20260903112100 | 78 | 199 | 0.0 | 0.0 | 0.00 | 0.00 | 0.00 | 100 | 1015.8 |
| 20260903111100 | 78 | 199 | 0.0 | 0.0 | 0.00 | 0.00 | 0.00 | 100 | 1015.7 |
| 20260903110559 | 78 | 199 | 0.0 | 0.0 | 0.00 | 0.00 | 0.00 | 100 | 1015.6 |
| 20260903110059 | 78 | 199 | 0.0 | 0.0 | 0.00 | 0.00 | 0.00 | 100 | 1015.6 |
| 20260903105558 | 78 | 199 | 0.0 | 0.0 | 0.00 | 0.00 | 0.00 | 100 | 1015.6 |
| 20260903105057 | 78 | 199 | 0.0 | 0.0 | 0.00 | 0.00 | 0.00 | 100 | 1015.4 |
| 20260903104558 | 78 | 199 | 0.0 | 0.0 | 0.00 | 0.00 | 0.00 | 100 | 1015.4 |
| 20260903104056 | 78 | 199 | 0.0 | 0.0 | 0.00 | 0.00 | 0.00 | 100 | 1015.3 |
| 20260903103556 | 78 | 199 | 0.0 | 0.0 | 0.00 | 0.00 | 0.00 | 100 | 1015.3 |
| 20260903103056 | 78 | 199 | 0.0 | 0.0 | 0.00 | 0.00 | 0.00 | 100 | 1015.3 |
| 20260903102557 | 78 | 199 | 0.0 | 0.0 | 0.00 | 0.00 | 0.00 | 100 | 1015.2 |
| 20260903102059 | 78 | 199 | 0.0 | 0.0 | 0.00 | 0.00 | 0.00 | 100 | 1015.3 |
| 20260903101556 | 78 | 199 | 0.0 | 0.0 | 0.00 | 0.00 | 0.00 | 100 | 1015.4 |
| 20260903101056 | 78 | 199 | 0.0 | 0.0 | 0.00 | 0.00 | 0.00 | 100 | 1015.3 |
| 20260903100555 | 78 | 199 | 0.0 | 0.0 | 0.00 | 0.00 | 0.00 | 100 | 1015.2 |
| 20260903100059 | 78 | 199 | 0.0 | 0.0 | 0.00 | 0.00 | 0.00 | 100 | 1015.1 |
| 20260903095555 | 78 | 199 | 0.0 | 0.0 | 0.00 | 0.00 | 0.00 | 100 | 1015.2 |
| 20260903095055 | 78 | 199 | 0.0 | 0.0 | 0.00 | 0.00 | 0.00 | 100 | 1015.1 |
| 20260903094601 | 78 | 199 | 0.0 | 0.0 | 0.00 | 0.00 | 0.00 | 100 | 1015.1 |
| 20260903094055 | 78 | 199 | 0.0 | 0.0 | 0.00 | 0.00 | 0.00 | 100 | 1015.0 |
| 20260903093555 | 78 | 199 | 0.0 | 0.0 | 0.00 | 0.00 | 0.00 | 100 | 1015.0 |
| 20260903093117 | 78 | 199 | 0.0 | 0.0 | 0.00 | 0.00 | 0.00 | 100 | 1014.9 |
| 20260903092553 | 78 | 199 | 0.0 | 0.0 | 0.00 | 0.00 | 0.00 | 100 | 1014.8 |
| 20260903092053 | 78 | 199 | 0.0 | 0.0 | 0.00 | 0.00 | 0.00 | 100 | 1014.8 |
| 20260903091553 | 78 | 199 | 0.0 | 0.0 | 0.00 | 0.00 | 0.00 | 100 | 1015.0 |
| 20260903091054 | 78 | 199 | 0.0 | 0.0 | 0.00 | 0.00 | 0.00 | 100 | 1015.0 |
| 20260903090552 | 78 | 199 | 0.0 | 0.0 | 0.00 | 0.00 | 0.00 | 100 | 1014.9 |
| 20260903090053 | 78 | 199 | 0.0 | 0.0 | 0.00 | 0.00 | 0.00 | 100 | 1014.9 |
| 20260903085552 | 78 | 199 | 0.0 | 0.0 | 0.00 | 0.00 | 0.00 | 100 | 1014.9 |
| 20260903085050 | 78 | 198 | 0.0 | 0.0 | 0.00 | 0.00 | 0.00 | 100 | 1014.9 |
| 20260903084550 | 78 | 198 | 0.0 | 0.0 | 0.00 | 0.00 | 0.00 | 100 | 1014.8 |
| 20260903084050 | 79 | 198 | 0.0 | 1.0 | 0.00 | 0.00 | 0.00 | 100 | 1014.9 |
| 20260903083549 | 79 | 198 | 0.0 | 1.0 | 0.00 | 0.00 | 0.00 | 100 | 1014.9 |
| 20260903083048 | 79 | 198 | 0.0 | 2.0 | 0.00 | 0.00 | 0.00 | 100 | 1014.9 |
| 20260903082552 | 79 | 198 | 0.0 | 3.0 | 0.00 | 0.00 | 0.00 | 100 | 1014.7 |
| 20260903082048 | 79 | 199 | 1.0 | 3.0 | 0.00 | 0.00 | 0.00 | 100 | 1014.7 |
| 20260903081549 | 79 | 189 | 0.0 | 0.0 | 0.00 | 0.00 | 0.00 | 100 | 1014.7 |
| 20260903081049 | 79 | 178 | 0.0 | 0.0 | 0.00 | 0.00 | 0.00 | 100 | 1014.7 |
| 20260903080548 | 79 | 178 | 0.0 | 3.0 | 0.00 | 0.00 | 0.00 | 100 | 1014.7 |
| 20260903080057 | 79 | 178 | 0.0 | 3.0 | 0.00 | 0.00 | 0.00 | 100 | 1014.7 |
| 20260903075546 | 79 | 184 | 0.0 | 3.0 | 0.00 | 0.00 | 0.00 | 100 | 1014.7 |
| 20260903075048 | 79 | 175 | 0.0 | 1.0 | 0.00 | 0.00 | 0.00 | 100 | 1014.8 |
| 20260903074601 | 79 | 174 | 0.0 | 0.0 | 0.00 | 0.00 | 0.00 | 100 | 1014.7 |
| 20260903074045 | 79 | 174 | 0.0 | 0.0 | 0.00 | 0.00 | 0.00 | 100 | 1014.7 |
| 20260903073547 | 79 | 173 | 0.0 | 2.0 | 0.00 | 0.00 | 0.00 | 100 | 1014.8 |
| 20260903073054 | 79 | 172 | 0.0 | 4.0 | 0.00 | 0.00 | 0.00 | 100 | 1014.7 |
| 20260903072544 | 80 | 176 | 1.0 | 4.0 | 0.00 | 0.00 | 0.00 | 100 | 1014.8 |
| 20260903072044 | 80 | 177 | 1.0 | 4.0 | 0.00 | 0.00 | 0.00 | 100 | 1014.8 |